Dyersburg, TN

11:37 AM CST on December 07, 2019 (GMT -0600)
Dyersburg Municipal

Weather History for KDYR - October, 2019

Change the Weather History Date:

Monday, October 7, 2019

  Actual Average Record
Temperature  
Mean Temperature 62 °F -  
Max Temperature 72 °F 72 °F 90 °F (2018)
Min Temperature 54 °F 51 °F 37 °F (2001)
Degree Days  
Heating Degree Days 2    
Growing Degree Days 12 (Base 50)    
Moisture  
Dew Point 55 °F    
Average Humidity 85    
Maximum Humidity 100    
Minimum Humidity 49    
Precipitation  
Precipitation 0.16 in - - ()
Sea Level Pressure  
Sea Level Pressure 30.17 in    
Wind  
Wind Speed 10 mph ()    
Max Wind Speed 22 mph    
Max Gust Speed 31 mph    
Visibility 8.6 miles    
Events Rain    
Averages and records for this station are not official NWS values.
T = Trace of Precipitation, MM = Missing Value Source: Averaged Metar Reports

Daily Weather History Graph

Daily Weather History Graph

Search for Another Location

Airport or City:

Astronomy

Oct. 07, 2019 Rise Set
Actual Time 6:57 AM CDT 6:32 PM CDT
Civil Twilight 6:31 AM CDT 6:58 PM CDT
Nautical Twilight 6:02 AM CDT 7:28 PM CDT
Astronomical Twilight 5:32 AM CDT 7:57 PM CDT
Moon 3:42 PM CDT 1:03 AM CDT
Length of Visible Light 12h 26m
Length of Day
11h 35m
Waxing Gibbous, 69% of the Moon is Illuminated
Oct 7
Waxing Gibbous
Oct 13
Full
Oct 21
Last Quarter
Oct 27
New
Nov 4
First Quarter

Hourly Weather History & Observations

Time (CDT) Temp. Dew Point Humidity Pressure Visibility Wind Dir Wind Speed Gust Speed Precip Events Conditions
12:56 AM 63.0 °F 63.0 °F 100% 30.12 in 10.0 mi North 12.7 mph - 0.15 in Rain Light Rain
1:05 AM 62.6 °F 62.6 °F 100% 30.09 in 4.0 mi NE 12.7 mph - 0.00 in Rain Light Rain
1:51 AM 60.8 °F 60.8 °F 100% 30.09 in 2.0 mi NNE 9.2 mph - 0.00 in   Overcast
1:56 AM 61.0 °F 61.0 °F 100% 30.11 in 2.5 mi NE 9.2 mph - 0.00 in   Overcast
2:14 AM 60.8 °F 60.8 °F 100% 30.09 in 6.0 mi NNE 10.4 mph - 0.01 in Rain Light Rain
2:56 AM 60.1 °F 59.0 °F 96% 30.12 in 10.0 mi North 12.7 mph - 0.01 in   Overcast
3:10 AM 59.0 °F 59.0 °F 100% 30.11 in 10.0 mi North 8.1 mph - N/A   Overcast
3:56 AM 59.0 °F 57.0 °F 93% 30.12 in 10.0 mi North 16.1 mph - N/A   Overcast
4:15 AM 57.2 °F 57.2 °F 100% 30.11 in 10.0 mi North 21.9 mph 31.1 mph 0.00 in Rain Light Rain
4:27 AM 57.2 °F 55.4 °F 94% 30.12 in 10.0 mi North 18.4 mph 25.3 mph 0.00 in Rain Light Rain
4:56 AM 55.9 °F 54.0 °F 93% 30.14 in 8.0 mi NNE 21.9 mph 31.1 mph 0.00 in Rain Light Rain
5:04 AM 55.4 °F 53.6 °F 94% 30.13 in 2.5 mi NE 16.1 mph 25.3 mph 0.00 in   Overcast
5:36 AM 55.4 °F 53.6 °F 94% 30.14 in 2.5 mi NNE 13.8 mph - 0.00 in   Overcast
5:46 AM 55.4 °F 53.6 °F 94% 30.15 in 7.0 mi NNE 9.2 mph - 0.00 in Rain Light Rain
5:56 AM 57.0 °F 53.1 °F 87% 30.17 in 9.0 mi NNE 11.5 mph - 0.00 in Rain Light Rain
6:35 AM 55.4 °F 55.4 °F 100% 30.17 in 10.0 mi NNE 15.0 mph - 0.00 in Rain Light Rain
6:56 AM 57.0 °F 54.0 °F 89% 30.19 in 10.0 mi NNE 17.3 mph - 0.00 in   Overcast
7:25 AM 57.2 °F 53.6 °F 88% 30.19 in 10.0 mi NE 12.7 mph 20.7 mph 0.00 in   Overcast
7:56 AM 57.0 °F 54.0 °F 89% 30.22 in 10.0 mi NE 11.5 mph - 0.00 in   Overcast
8:56 AM 57.9 °F 55.0 °F 90% 30.24 in 9.0 mi NE 5.8 mph - N/A   Overcast
9:56 AM 59.0 °F 55.0 °F 87% 30.25 in 10.0 mi NE 10.4 mph - N/A   Overcast
10:56 AM 60.1 °F 55.0 °F 83% 30.25 in 10.0 mi NE 10.4 mph - N/A   Mostly Cloudy
11:56 AM 64.0 °F 55.0 °F 73% 30.25 in 8.0 mi NNE 10.4 mph - N/A   Clear
12:56 PM 68.0 °F 54.0 °F 61% 30.23 in 9.0 mi NE 11.5 mph - N/A   Mostly Cloudy
1:56 PM 69.1 °F 53.1 °F 57% 30.21 in 10.0 mi NNE 13.8 mph - N/A   Partly Cloudy
2:56 PM 71.1 °F 53.1 °F 53% 30.19 in 10.0 mi NE 12.7 mph - N/A   Clear
3:56 PM 71.1 °F 53.1 °F 53% 30.18 in 10.0 mi NNE 8.1 mph - N/A   Clear
4:56 PM 71.1 °F 51.1 °F 49% 30.18 in 10.0 mi ENE 11.5 mph - N/A   Clear
5:56 PM 69.1 °F 52.0 °F 54% 30.18 in 10.0 mi NE 5.8 mph - N/A   Clear
6:56 PM 64.0 °F 53.1 °F 67% 30.18 in 10.0 mi North 5.8 mph - N/A   Clear
7:56 PM 60.1 °F 52.0 °F 75% 30.19 in 10.0 mi Calm Calm - N/A   Clear
8:56 PM 57.0 °F 52.0 °F 83% 30.21 in 10.0 mi Calm Calm - N/A   Clear
9:56 PM 55.9 °F 53.1 °F 90% 30.22 in 10.0 mi Calm Calm - N/A   Clear
10:56 PM 54.0 °F 52.0 °F 93% 30.22 in 10.0 mi Calm Calm - N/A   Clear
11:56 PM 54.0 °F 52.0 °F 93% 30.21 in 10.0 mi NE 3.5 mph - N/A   Clear